Preview of NWS' New Version of Forecast
This preview is not operational and should not be used for support decisions.
Latest weather observations around

Farmington, Four Corners Regional Airport (KFMN)

Using English Units (Switch to International System of Units)
Date/ Time (MDT) Wind (mph) Vis. (mi) Weather Sky Cond. Temp (°F) Rel. Humidity Wind Chill (°F) Heat Index (°F) Pressure Precip. (in)
Air Dwpt 6 hour Altimeter (inHg) Sea level (inHg) 1 hr 3 hr 6 hr
Max Min
Jun 18 13:53 WNW 13 10 Clear CLR 80 37     21%   79   29.91      
Jun 18 12:53 W 10 10 Clear CLR 80 37     21%   79   29.95      
Jun 18 11:53 3 10 Clear CLR 76 41     29%   75   29.98      
Jun 18 10:53 3 10 Clear CLR 73 44     35%   72   29.99      
Jun 18 09:53 Calm 10 Clear CLR 68 46     45%       30      
Jun 18 08:53 5 10 Clear CLR 62 46     56%       30.02      
Jun 18 07:53 E 6 10 Clear CLR 60 45     57%       30.02      
Jun 18 06:53 E 7 10 Clear CLR 55 45     69%       30.01      
Jun 18 05:53 ENE 5 10 Clear CLR 51 45     79%       30.01      
Jun 18 04:53 E 3 10 Clear CLR 54 46     74%       29.98      
Jun 18 03:53 E 9 10 Clear CLR 56 47     72%       29.95      
Jun 18 02:53 ESE 9 10 Clear CLR 58 46     65%       29.96      
Jun 18 01:53 ESE 8 10 Clear CLR 59 46     62%       29.96      
Jun 18 00:53 N 6 10 Clear CLR 58 43     57%       29.96      
Jun 17 23:53 ENE 8 10 Clear CLR 60 45     57%       29.95      
Jun 17 22:53 NE 7 10 Clear CLR 59 44     58%       29.97      
Jun 17 21:53 SSE 6 10 Mostly Clear FEW110 64 44     48%       29.97      
Jun 17 20:53 SSE 6 10 Clear CLR 66 43     43%       29.95      
Jun 17 19:53 SE 9 10 Clear CLR 70 40     33%       29.9      
Jun 17 18:53 SSE 7 10 Clear CLR 71 37     29%   69   29.9      
Jun 17 17:53 S 15 10 Mostly Cloudy FEW070 SCT090 BKN110 70 39     32%       29.93     0
Jun 17 17:36 SW 20 10 Cloudy and Windy FEW047 BKN090 OVC110 69 42     38%              
Jun 17 16:53 WNW 33 10 Mostly Clear and Breezy FEW060 FEW110 72 39     30%   70   29.91      
Jun 17 15:53 W 14 10 Clear CLR 81 34     18%   80   29.85      
Jun 17 14:53 Calm 10 Mostly Cloudy BKN095 BKN120 77 43     30%   76   29.86 0 0  
Jun 17 14:19 W 5 10 Light Rain FEW070 BKN085 OVC110 76 41     29%   75     0    
Jun 17 14:01 NW 15 10 Mostly Cloudy BKN085 79 40     25%   78          
Jun 17 13:53 5 10 Mostly Cloudy BKN080 81 40     23%   80   29.85      
Jun 17 12:53 5 10 Clear CLR 79 39     24%   78   29.86      
Jun 17 11:53 3 10 Clear CLR 80 42     26%   79   29.89      
Jun 17 10:53 SSE 5 10 Clear CLR 75 43     32%   74   29.91      
Jun 17 09:53 3 10 Clear CLR 72 45     38%   71   29.91      
Jun 17 08:53 E 5 10 Clear CLR 67 45     45%       29.93      
Jun 17 07:53 ENE 7 10 Clear CLR 66 44     45%       29.91      
Jun 17 06:53 NE 6 10 Clear CLR 59 44     58%       29.93      
Jun 17 05:53 NNE 7 10 Clear CLR 56 42     60%       29.91     0
Jun 17 04:53 N 8 10 Clear CLR 60 42     51%       29.89      
Jun 17 03:53 NNE 7 10 Clear CLR 61 44     54%       29.85      
Jun 17 02:53 ENE 6 10 Clear CLR 65 42     43%       29.83   0  
Jun 17 01:53 E 7 10 Mostly Clear FEW120 67 42     40%       29.84 0    
Jun 17 00:53 Calm 10 Light Rain OVC085 69 44     40%       29.86 0    
Jun 16 23:53 W 15 10 Clear   69 42     38%       29.87      
Jun 16 22:53 W 11 10 Mostly Cloudy BKN110 70 40     33%       29.87      
Jun 16 21:53 WNW 5 10 Mostly Clear FEW120 71 39     31%   69   29.84      
Jun 16 20:53 NNW 7 10 Clear CLR 73 38     28%   71   29.83      
Jun 16 19:53   10 Clear CLR 78 36     22%   77   29.8      
Jun 16 18:53 SW 8 10 Clear CLR 78 35     21%   77   29.81      
Jun 16 17:53 W 17 10 Partly Cloudy SCT120 78 34     20%   77   29.85      
Jun 16 17:45 WNW 20 10 Mostly Cloudy and Windy FEW095 BKN120 79 33     19%   77          
Jun 16 16:53 W 17 10 Clear CLR 78 39     25%   77   29.83      
Jun 16 15:53 WSW 11 10 Clear CLR 85 31     14%   82   29.79      
Jun 16 14:53 SW 7 10 Clear CLR 85 36     17%   82   29.81      
Jun 16 13:53 5 10 Clear CLR 83 34     17%   80   29.83      
Jun 16 12:53 S 6 10 Mostly Clear FEW120 80 38     22%   79   29.86      
Jun 16 11:53 N 6 10 Clear CLR 80 39     23%   79   29.88      
Jun 16 10:53 WSW 3 10 Clear CLR 76 40     27%   74   29.89      
Jun 16 09:53 Calm 10 Clear CLR 71 43     36%   70   29.92      
Jun 16 08:53 E 11 10 Clear CLR 66 41     40%       29.93      
Jun 16 07:53 ENE 6 10 Clear CLR 64 42     45%       29.94      
Jun 16 06:53 E 8 10 Clear CLR 57 41     55%       29.93      
Jun 16 05:53 ENE 5 10 Clear CLR 52 41     66%       29.93      
Jun 16 04:53 ENE 6 10 Clear CLR 53 42     66%       29.89      
Jun 16 03:53 E 8 10 Clear CLR 56 42     60%       29.87      
Jun 16 02:53 E 8 10 Clear CLR 58 42     55%       29.86      
Jun 16 01:53 E 7 10 Clear CLR 56 41     57%       29.88      
Jun 16 00:53 N 6 10 Clear CLR 57 41     55%       29.88      
Jun 15 23:53 Calm 10 Clear CLR 60 40     47%       29.85     0
Jun 15 22:53 N 3 10 Clear CLR 66 41     40%       29.87      
Jun 15 21:53 Calm 10 Mostly Clear FEW120 65 41     42%       29.88      
Jun 15 20:53 SE 7 10 Partly Cloudy SCT120 72 41     33%   70   29.86   0  
Jun 15 19:53 SSW 10 10 Cloudy OVC110 73 43     34%   72   29.87      
Jun 15 18:53 E 13 10 Cloudy FEW060 FEW075 OVC100 74 39     28%   72   29.85 0    
Jun 15 18:07 SSE 14 9 Light Rain FEW070 BKN110 75 40     28%   74     0    
Jun 15 17:53 SSE 11 10 Mostly Cloudy BKN100 76 38     25%   74   29.85      
Jun 15 17:29 NNE 21 10 Mostly Cloudy and Windy BKN110 77 37     24%   76          
Jun 15 16:53 W 16 10 Mostly Clear FEW110 85 32     15%   82   29.77      
Jun 15 15:53 W 15 10 Clear CLR 85 34     16%   82   29.76      
Jun 15 14:53 WSW 13 10 Mostly Clear FEW100 85 35     17%   82   29.77      
Jun 15 13:53 W 8 10 Clear CLR 83 35     18%   80   29.77      
May 15 09:53 3 10 Clear CLR 65 21     18%       30      
May 14 18:53 5 10 Clear CLR 76 8     7%   74   29.83      
May 13 21:53 W 7 10 Clear CLR 63 10     12%       29.83      
May 13 16:53 7 10 Clear CLR 77 12     8%   75   29.77      
May 13 15:53 SSE 15 10 Clear CLR 76 12     9%   74   29.79      
May 13 05:53 E 3 10 Clear CLR 52 22     31%       29.89      
May 12 04:53 S 14 10 Clear CLR 63 32     31%       29.69      
Jun 11 23:53 Calm 10 Clear CLR 68 17     14%       29.75      
Jun 11 21:53 SW 18 10 Clear CLR 76 15     10%   74   29.71      
Jun 11 12:53 S 16 10 Clear CLR 82 16     8%   79   29.74      
Jun 10 16:53 W 9 10 Clear CLR 92 11     5%   86   29.61      
Jun 10 11:53   10 Clear CLR 85 27     12%   82   29.7      
Jun 09 20:53 W 9 10 Clear CLR 80 27     14%   78   29.69      
Jun 09 03:53 E 6 10 Clear CLR 53 24     32%       29.87      
Jun 08 21:53 Calm 10 Clear CLR 76 12     9%   74   29.81      
Jun 08 08:53 ESE 6 10 Clear CLR 70 44     39%       29.97      
Jun 06 11:53 ESE 7 10 Clear CLR 84 40     21%   81   29.96      
Jun 06 09:53 SE 9 10 Clear CLR 77 42     29%   76   29.98      
Jun 06 02:53 E 6 10 Clear CLR 63 38     40%       29.89      
Jun 05 19:53 Calm 4 Haze CLR 85 31     14%   82   29.79